EW9507 Weather Reports


Display with metric or nautical units.
time (UTC)temp
F
wind
direction
speed
MPH
gust
MPH
rain 1hr
in
rain 24hr
in
rain mn
in
humidity
%
barometer
mb
20260507220053 54 309 14.0 23.0 0.00 0.02 0.02 73 1007.9
20260507220051 54 302 15.0 23.0 0.00 0.02 0.02 73 1007.9
20260507214550 52 310 13.0 19.0 0.00 0.02 0.02 81 1008.2
20260507213052 51 312 13.0 21.0 0.00 0.02 0.02 83 1008.4
20260507211542 49 310 12.0 22.0 0.00 0.02 0.02 84 1008.7
20260507210042 50 302 12.0 17.0 0.00 0.02 0.02 78 1008.8
20260507204540 52 319 12.0 21.0 0.00 0.02 0.02 71 1008.7
20260507203041 53 321 17.0 25.0 0.01 0.02 0.02 67 1008.9
20260507201541 52 315 10.0 19.0 0.02 0.02 0.02 70 1008.8
20260507200043 52 322 12.0 21.0 0.02 0.02 0.02 73 1008.8
20260507194545 51 8 11.0 18.0 0.02 0.02 0.02 79 1009.0
20260507193037 48 337 5.0 13.0 0.01 0.01 0.01 84 1009.2
20260507191534 48 321 10.0 16.0 0.00 0.00 0.00 84 1009.3
20260507190032 48 328 10.0 20.0 0.00 0.00 0.00 83 1009.3
20260507184529 49 335 11.0 25.0 0.00 0.00 0.00 79 1009.3
20260507183037 49 352 11.0 23.0 0.00 0.00 0.00 80 1009.4
20260507181524 51 330 14.0 24.0 0.00 0.00 0.00 71 1009.4
20260507180021 55 339 16.0 24.0 0.00 0.00 0.00 53 1008.9
20260507174524 56 4 16.0 26.0 0.00 0.00 0.00 50 1008.8
20260507173019 56 6 15.0 23.0 0.00 0.00 0.00 49 1008.7
20260507171551 56 13 14.0 22.0 0.00 0.00 0.00 46 1008.5
20260507170050 57 6 11.0 17.0 0.00 0.00 0.00 42 1008.7
20260507164603 58 315 6.0 11.0 0.00 0.00 0.00 41 1008.8
20260507163043 58 298 7.0 10.0 0.00 0.00 0.00 41 1008.8
20260507161546 57 354 7.0 17.0 0.00 0.00 0.00 41 1008.7
20260507160045 57 321 6.0 10.0 0.00 0.00 0.00 42 1008.9
20260507154537 57 6 5.0 13.0 0.00 0.00 0.00 40 1009.1
20260507153036 58 306 9.0 26.0 0.00 0.00 0.00 38 1009.3
20260507151535 58 279 11.0 18.0 0.00 0.00 0.00 38 1009.3
20260507150031 56 260 15.0 20.0 0.00 0.00 0.00 45 1009.3
20260507144603 54 274 13.0 19.0 0.00 0.00 0.00 45 1009.6
20260507143108 53 250 13.0 18.0 0.00 0.00 0.00 42 1009.7
20260507141608 53 288 9.0 13.0 0.00 0.00 0.00 42 1009.7
20260507140050 53 284 9.0 16.0 0.00 0.00 0.00 42 1009.8
20260507134548 52 266 9.0 15.0 0.00 0.00 0.00 43 1009.6
20260507133045 51 260 9.0 11.0 0.00 0.00 0.00 43 1009.7
20260507131546 51 286 10.0 15.0 0.00 0.00 0.00 42 1009.7
20260507130041 50 288 9.0 15.0 0.00 0.00 0.00 43 1009.7
20260507124536 49 262 11.0 17.0 0.00 0.00 0.00 44 1009.7
20260507123029 48 262 10.0 14.0 0.00 0.00 0.00 45 1009.4
20260507121527 47 283 7.0 12.0 0.00 0.00 0.00 44 1009.6
20260507120025 45 281 7.0 11.0 0.00 0.00 0.00 47 1009.7
20260507114525 44 290 6.0 10.0 0.00 0.00 0.00 48 1009.8
20260507113023 41 297 6.0 9.0 0.00 0.00 0.00 50 1009.7
20260507111517 41 290 4.0 6.0 0.00 0.00 0.00 48 1009.7
20260507110014 44 302 5.0 7.0 0.00 0.00 0.00 43 1009.7
20260507104511 46 295 7.0 13.0 0.00 0.00 0.00 40 1009.6
20260507103011 47 269 9.0 15.0 0.00 0.00 0.00 39 1009.7
20260507101540 48 259 12.0 18.0 0.00 0.00 0.00 38 1009.6
20260507100051 46 257 11.0 17.0 0.00 0.00 0.00 41 1009.7
20260507094536 46 255 9.0 14.0 0.00 0.00 0.00 40 1009.8
20260507093034 46 276 10.0 16.0 0.00 0.00 0.00 39 1009.9
20260507091535 46 255 10.0 16.0 0.00 0.00 0.00 38 1010.1
20260507090031 47 258 10.0 17.0 0.00 0.00 0.00 37 1010.2
20260507084531 47 245 11.0 16.0 0.00 0.00 0.00 37 1010.2
20260507083024 47 257 11.0 17.0 0.00 0.00 0.00 36 1010.4
20260507081524 47 265 10.0 16.0 0.00 0.00 0.00 36 1010.6
20260507081522 47 269 10.0 16.0 0.00 0.00 0.00 36 1010.6
20260507080019 47 276 10.0 16.0 0.00 0.00 0.00 35 1011.0
20260507074518 47 257 11.0 16.0 0.00 0.00 0.00 35 1011.1
20260507073015 47 260 12.0 18.0 0.00 0.00 0.00 35 1011.1
20260507071523 47 258 13.0 20.0 0.00 0.00 0.00 34 1011.2
20260507070013 47 276 14.0 19.0 0.00 0.00 0.00 34 1011.2
20260507064507 46 269 12.0 19.0 0.00 0.00 0.00 35 1011.6
20260507063037 46 255 11.0 16.0 0.00 0.00 0.00 35 1011.6
20260507061533 46 252 12.0 17.0 0.00 0.00 0.00 35 1011.8
20260507060024 44 262 9.0 16.0 0.00 0.00 0.00 36 1012.0
20260507054518 44 228 10.0 16.0 0.00 0.00 0.00 35 1011.9
20260507053013 42 255 9.0 13.0 0.00 0.00 0.00 38 1012.0
20260507051509 39 262 3.0 5.0 0.00 0.00 0.00 43 1012.4
20260507050043 42 283 2.0 7.0 0.00 0.00 0.00 38 1012.6
20260507044530 43 227 6.0 9.0 0.00 0.00 0.00 36 1012.9
20260507043027 42 196 5.0 10.0 0.00 0.00 0.00 37 1013.1
20260507041528 41 206 6.0 9.0 0.00 0.00 0.00 38 1013.2
20260507040024 37 252 2.0 5.0 0.00 0.00 0.00 41 1013.6
20260507034524 35 189 6.0 9.0 0.00 0.00 0.00 44 1013.5
20260507033021 38 178 2.0 4.0 0.00 0.00 0.00 37 1013.5
20260507031520 42 320 3.0 6.0 0.00 0.00 0.00 32 1013.6
20260507030027 46 265 6.0 9.0 0.00 0.00 0.00 29 1013.6
20260507024525 45 259 7.0 10.0 0.00 0.00 0.00 29 1013.6
20260507023016 45 276 7.0 10.0 0.00 0.00 0.00 28 1013.5
20260507021517 46 257 5.0 7.0 0.00 0.00 0.00 26 1013.3
20260507020015 49 278 7.0 11.0 0.00 0.00 0.00 23 1013.5
20260507014515 50 276 6.0 13.0 0.00 0.00 0.00 21 1013.6
20260507013014 51 288 9.0 19.0 0.00 0.00 0.00 20 1013.6
20260507011510 52 305 13.0 19.0 0.00 0.00 0.00 19 1013.5
20260507010010 52 300 16.0 21.0 0.00 0.00 0.00 19 1013.5
20260507004508 53 285 15.0 21.0 0.00 0.00 0.00 20 1013.6
20260507003036 53 283 15.0 20.0 0.00 0.00 0.00 20 1013.8
20260507001534 53 276 13.0 21.0 0.00 0.00 0.00 21 1013.9
20260507000028 53 283 14.0 26.0 0.00 0.00 0.00 21 1014.1
20260506234530 53 259 15.0 20.0 0.00 0.00 0.00 20 1014.2
20260506233024 53 288 12.0 21.0 0.00 0.00 0.00 21 1014.6
20260506231523 52 265 16.0 23.0 0.00 0.00 0.00 22 1014.5
20260506230023 53 252 16.0 21.0 0.00 0.00 0.00 22 1014.7
20260506224510 52 286 14.0 23.0 0.00 0.00 0.00 21 1015.3
20260506223007 53 260 10.0 18.0 0.00 0.00 0.00 22 1015.5